Total_Precipitation_Accumulation
0.54 0.49 0.46 0.53 0.54 0.48 0.45 0.52 0.59 0.63 0.64 0.75 0.89 1.01 1.12 1.27 1.47 1.52 1.56 1.68 1.73 1.73 1.85 1.96 2.03 1.99 1.93 2.01 2.21 2.64 2.60 2.30 2.07 2.05 1.94 1.80 1.75 1.77 1.71 1.82 1.88 1.79 1.74
0.46 0.41 0.39 0.41 0.44 0.44 0.43 0.46 0.58 0.68 0.72 0.79 0.93 1.11 1.37 1.44 1.58 1.79 1.79 1.78 1.83 1.86 1.93 2.13 2.24 2.20 2.20 2.28 2.35 2.65 2.88 2.65 2.45 2.47 2.67 2.44 2.23 1.86 1.56 1.59 1.66 1.71 1.75
0.39 0.32 0.34 0.38 0.39 0.42 0.50 0.54 0.66 0.85 1.01 1.10 1.34 1.67 1.94 1.99 1.93 1.96 2.02 2.02 2.03 2.08 2.03 2.10 2.28 2.30 2.29 2.37 2.57 2.88 3.26 3.27 2.96 2.72 2.94 2.73 2.44 2.32 1.80 1.47 1.49 1.62 1.73
0.47 0.37 0.35 0.39 0.39 0.44 0.58 0.77 0.97 1.26 1.48 1.59 1.77 2.04 2.19 2.24 2.12 2.11 2.13 2.17 2.09 2.02 2.02 2.07 2.22 2.39 2.52 2.66 2.71 2.69 3.15 3.53 3.36 3.12 2.72 2.44 2.31 2.45 2.32 1.84 1.51 1.53 1.57
0.50 0.50 0.49 0.54 0.56 0.67 0.89 1.24 1.53 1.72 1.86 1.89 1.94 2.19 2.34 2.51 2.51 2.38 2.24 2.19 2.20 2.16 2.06 2.03 2.05 2.09 2.21 2.37 2.51 2.58 2.85 3.14 3.35 3.32 3.08 2.77 2.58 2.13 2.14 2.21 1.97 1.68 1.43
0.55 0.66 0.79 0.92 0.99 1.09 1.32 1.56 1.73 1.88 1.86 1.83 1.85 1.99 2.19 2.37 2.39 2.40 2.36 2.28 2.21 2.14 2.01 1.92 1.96 1.97 1.96 2.10 2.24 2.37 2.66 2.89 3.06 3.14 3.05 2.96 2.89 2.58 2.27 2.08 2.04 1.90 1.64
0.64 0.87 1.05 1.19 1.28 1.39 1.51 1.58 1.57 1.66 1.69 1.67 1.68 1.74 1.81 1.85 1.90 2.02 1.96 1.86 1.77 1.71 1.68 1.59 1.61 1.72 1.78 1.93 2.01 1.98 2.08 2.30 2.53 2.74 2.81 2.86 2.76 2.68 2.60 2.43 2.17 1.90 1.56
0.92 1.05 1.16 1.27 1.33 1.47 1.53 1.49 1.46 1.44 1.39 1.35 1.41 1.45 1.47 1.54 1.53 1.51 1.49 1.42 1.37 1.36 1.32 1.31 1.31 1.37 1.43 1.61 1.82 1.85 1.88 1.97 2.08 2.16 2.47 2.67 2.64 2.67 2.46 2.35 2.36 2.09 1.74
1.18 1.35 1.34 1.26 1.23 1.29 1.37 1.35 1.29 1.24 1.15 1.09 1.15 1.22 1.32 1.32 1.26 1.19 1.13 1.14 1.07 1.08 1.06 1.10 1.20 1.27 1.26 1.35 1.47 1.65 1.72 1.81 1.90 1.90 2.09 2.29 2.38 2.39 2.24 2.26 2.35 2.26 1.94
1.29 1.56 1.66 1.53 1.30 1.14 1.17 1.14 1.13 1.18 1.18 1.14 1.14 1.13 1.08 1.01 0.97 0.97 0.89 0.88 0.95 0.97 0.98 0.96 1.02 1.11 1.15 1.25 1.36 1.38 1.48 1.57 1.75 1.92 2.05 2.10 2.15 2.22 2.15 2.14 2.25 2.24 2.07
1.49 1.62 1.64 1.51 1.36 1.10 1.04 1.03 1.03 1.09 1.18 1.11 1.13 1.11 1.00 0.88 0.83 0.77 0.71 0.73 0.79 0.83 0.83 0.87 0.97 1.00 1.03 1.09 1.10 1.13 1.19 1.25 1.37 1.43 1.57 1.80 2.01 2.11 2.14 2.20 2.25 2.26 2.10
1.19 1.19 1.29 1.32 1.25 1.11 1.04 1.11 1.16 1.18 1.15 1.10 1.07 1.03 0.97 0.87 0.86 0.78 0.69 0.72 0.77 0.79 0.80 0.86 0.92 0.92 0.99 1.03 1.00 1.01 1.08 1.19 1.27 1.28 1.31 1.42 1.69 1.87 2.01 2.13 2.16 2.20 2.14
0.93 0.88 0.99 1.15 1.09 1.03 1.05 1.15 1.29 1.31 1.25 1.14 1.06 1.04 0.99 0.97 0.99 0.86 0.77 0.76 0.84 0.95 0.97 0.96 0.99 0.95 0.97 0.99 0.98 1.02 1.06 1.08 1.14 1.18 1.18 1.28 1.40 1.56 1.67 1.80 1.93 1.99 2.10
0.77 0.75 0.71 0.77 0.80 0.83 0.83 0.95 1.20 1.44 1.42 1.29 1.17 1.11 1.12 1.15 1.12 0.97 0.90 0.82 0.82 0.85 0.87 0.94 1.00 1.07 1.11 1.08 1.05 1.09 1.11 1.05 1.06 1.11 1.18 1.22 1.24 1.42 1.65 1.76 1.86 1.90 2.00
0.61 0.57 0.53 0.52 0.53 0.58 0.66 0.79 1.09 1.32 1.33 1.29 1.14 1.05 1.02 1.01 0.98 0.99 1.03 0.96 0.83 0.77 0.75 0.83 0.90 1.00 1.09 1.13 1.13 1.02 0.95 0.97 1.04 1.03 1.01 1.08 1.20 1.33 1.54 1.63 1.86 1.89 2.02
0.54 0.54 0.50 0.45 0.40 0.40 0.47 0.58 0.78 0.99 1.07 1.09 1.03 0.92 0.92 0.89 0.82 0.87 0.99 1.03 0.91 0.83 0.77 0.76 0.74 0.77 0.81 1.02 1.03 0.91 0.79 0.84 0.98 1.05 1.02 1.01 1.08 1.16 1.25 1.29 1.53 1.74 1.88
0.54 0.56 0.54 0.49 0.46 0.44 0.45 0.47 0.55 0.69 0.80 0.83 0.80 0.70 0.73 0.86 0.90 0.95 0.96 0.88 0.81 0.83 0.82 0.73 0.66 0.65 0.71 0.79 0.77 0.83 0.80 0.82 0.89 0.98 1.05 1.08 1.05 1.12 1.20 1.21 1.30 1.41 1.47
0.53 0.52 0.50 0.44 0.43 0.44 0.46 0.50 0.51 0.54 0.58 0.57 0.56 0.53 0.60 0.77 0.82 0.79 0.76 0.72 0.71 0.75 0.80 0.72 0.68 0.72 0.72 0.75 0.77 0.81 0.78 0.89 0.97 0.97 0.96 1.09 1.13 1.16 1.32 1.31 1.38 1.32 1.24
0.30 0.32 0.36 0.33 0.31 0.32 0.36 0.38 0.37 0.41 0.41 0.41 0.43 0.50 0.54 0.56 0.57 0.55 0.56 0.62 0.68 0.69 0.63 0.66 0.80 0.79 0.81 0.92 0.84 0.75 0.77 0.89 0.97 0.92 0.95 1.07 1.15 1.34 1.46 1.45 1.44 1.34 1.26
0.16 0.23 0.33 0.36 0.30 0.30 0.34 0.35 0.35 0.38 0.38 0.40 0.45 0.48 0.52 0.55 0.54 0.54 0.56 0.59 0.63 0.66 0.67 0.70 0.82 0.86 0.88 0.92 0.79 0.76 0.82 0.92 0.99 0.98 0.96 1.18 1.17 1.30 1.36 1.38 1.48 1.47 1.36
0.17 0.21 0.27 0.34 0.33 0.31 0.33 0.33 0.35 0.38 0.45 0.48 0.46 0.46 0.50 0.54 0.58 0.62 0.61 0.60 0.62 0.65 0.70 0.72 0.74 0.72 0.69 0.69 0.70 0.74 0.75 0.85 0.94 0.92 0.92 0.88 1.06 1.11 1.21 1.31 1.36 1.60 1.53
0.16 0.19 0.22 0.31 0.34 0.35 0.37 0.39 0.39 0.40 0.47 0.50 0.48 0.48 0.52 0.53 0.57 0.67 0.69 0.68 0.69 0.67 0.68 0.71 0.76 0.74 0.67 0.63 0.63 0.69 0.76 0.86 0.84 0.79 0.83 0.84 0.98 1.02 1.08 1.08 1.25 1.48 1.48
0.16 0.19 0.21 0.28 0.33 0.37 0.42 0.45 0.44 0.43 0.45 0.47 0.50 0.53 0.54 0.54 0.54 0.60 0.66 0.69 0.72 0.72 0.71 0.72 0.76 0.74 0.70 0.70 0.73 0.73 0.79 0.81 0.73 0.65 0.81 0.89 0.98 0.96 0.90 1.03 1.24 1.29 1.31
0.12 0.15 0.17 0.23 0.31 0.37 0.40 0.47 0.49 0.48 0.49 0.51 0.56 0.60 0.61 0.60 0.59 0.61 0.66 0.70 0.71 0.72 0.70 0.69 0.76 0.80 0.78 0.73 0.68 0.67 0.69 0.69 0.67 0.68 0.86 1.02 1.07 1.01 0.94 1.00 1.13 1.16 1.28
0.15 0.14 0.16 0.19 0.25 0.32 0.37 0.44 0.50 0.55 0.54 0.54 0.60 0.65 0.67 0.66 0.66 0.67 0.68 0.67 0.66 0.70 0.70 0.69 0.74 0.75 0.72 0.74 0.77 0.72 0.69 0.69 0.71 0.81 0.97 1.11 1.13 1.15 1.07 1.07 1.15 1.13 1.11
0.17 0.17 0.17 0.17 0.20 0.26 0.30 0.36 0.40 0.48 0.55 0.59 0.59 0.59 0.66 0.69 0.66 0.66 0.66 0.68 0.69 0.73 0.72 0.69 0.72 0.72 0.72 0.77 0.78 0.80 0.79 0.78 0.89 1.04 1.16 1.27 1.34 1.35 1.32 1.28 1.24 1.15 1.11